• In Deutschland
  • Länderverzeichnis
  • Für 7 Tage
  • Wassertemperatur
  • Satellitenkarten
  • Wetterkarte
  • Widgets
  • user-avatar
    Anmelden

    Stündliche Wetter Crimmitschau

    Heute, 19 September, Mittwoch

    Zeit Temperatur Niederschläge Wind Luftdruck Luftfeuchtigkeit
    00:00 +19°C° 0.1 mm 3 m/S 738 mmHg 69%
    01:00 +19°C° 0 mm 3 m/S 739 mmHg 71%
    02:00 +19°C° 0.3 mm 2 m/S 739 mmHg 75%
    03:00 +18°C° 0.3 mm 2 m/S 739 mmHg 78%
    04:00 +18°C° 0.3 mm 2 m/S 739 mmHg 82%
    05:00 +18°C° 0.3 mm 2 m/S 739 mmHg 82%
    06:00 +19°C° 0.3 mm 1 m/S 740 mmHg 83%
    07:00 +19°C° 0 mm 2 m/S 740 mmHg 81%
    08:00 +20°C° 0.3 mm 2 m/S 741 mmHg 76%
    09:00 +23°C° 0.3 mm 2 m/S 741 mmHg 71%
    10:00 +25°C° 0.3 mm 1 m/S 741 mmHg 66%
    11:00 +26°C° 0.2 mm 2 m/S 741 mmHg 60%
    12:00 +27°C° 0.2 mm 2 m/S 741 mmHg 54%
    13:00 +29°C° 0.2 mm 3 m/S 741 mmHg 48%
    14:00 +29°C° 0 mm 3 m/S 741 mmHg 48%
    15:00 +29°C° 0 mm 3 m/S 740 mmHg 47%
    16:00 +29°C° 0 mm 3 m/S 740 mmHg 46%
    17:00 +27°C° 0 mm 3 m/S 740 mmHg 53%
    18:00 +25°C° 0 mm 2 m/S 740 mmHg 59%
    19:00 +23°C° 0 mm 2 m/S 740 mmHg 65%
    20:00 +21°C° 0 mm 2 m/S 740 mmHg 67%
    21:00 +21°C° 0 mm 3 m/S 740 mmHg 69%
    22:00 +20°C° 0 mm 3 m/S 741 mmHg 70%
    23:00 +20°C° 0 mm 3 m/S 741 mmHg 72%

    Morgen, 20 September, Donnerstag

    Zeit Temperatur Niederschläge Wind Luftdruck Luftfeuchtigkeit
    00:00 +19°C° 0 mm 3 m/S 741 mmHg 73%
    01:00 +19°C° 0 mm 2 m/S 741 mmHg 74%
    02:00 +19°C° 0 mm 2 m/S 741 mmHg 76%
    03:00 +18°C° 0 mm 2 m/S 741 mmHg 77%
    04:00 +18°C° 0 mm 2 m/S 741 mmHg 79%
    05:00 +18°C° 0 mm 2 m/S 741 mmHg 80%
    06:00 +18°C° 0 mm 2 m/S 741 mmHg 80%
    07:00 +18°C° 0 mm 2 m/S 741 mmHg 81%
    08:00 +21°C° 0 mm 2 m/S 741 mmHg 74%
    09:00 +24°C° 0 mm 2 m/S 741 mmHg 66%
    10:00 +26°C° 0 mm 2 m/S 741 mmHg 59%
    11:00 +27°C° 0 mm 3 m/S 741 mmHg 56%
    12:00 +28°C° 0 mm 3 m/S 741 mmHg 52%
    13:00 +29°C° 0 mm 3 m/S 740 mmHg 48%
    14:00 +29°C° 0 mm 3 m/S 740 mmHg 48%
    15:00 +28°C° 0 mm 3 m/S 740 mmHg 49%
    16:00 +28°C° 0 mm 3 m/S 739 mmHg 49%
    17:00 +27°C° 0 mm 3 m/S 739 mmHg 55%
    18:00 +25°C° 0 mm 2 m/S 739 mmHg 62%
    19:00 +23°C° 0 mm 2 m/S 738 mmHg 68%
    20:00 +21°C° 0 mm 2 m/S 738 mmHg 70%
    21:00 +20°C° 0 mm 2 m/S 738 mmHg 72%
    22:00 +20°C° 0 mm 3 m/S 738 mmHg 75%
    23:00 +19°C° 0 mm 3 m/S 738 mmHg 76%

    übermorgen, 21 September, Freitag

    Zeit Temperatur Niederschläge Wind Luftdruck Luftfeuchtigkeit
    00:00 +19°C° 0 mm 3 m/S 737 mmHg 77%
    01:00 +19°C° 0 mm 3 m/S 737 mmHg 78%
    02:00 +18°C° 0 mm 3 m/S 737 mmHg 79%
    03:00 +18°C° 0 mm 3 m/S 736 mmHg 79%
    04:00 +18°C° 0 mm 3 m/S 736 mmHg 80%
    05:00 +18°C° 0 mm 4 m/S 736 mmHg 79%
    06:00 +18°C° 0 mm 4 m/S 735 mmHg 78%
    07:00 +18°C° 0 mm 4 m/S 735 mmHg 77%
    08:00 +20°C° 0 mm 5 m/S 735 mmHg 70%
    09:00 +22°C° 0 mm 5 m/S 735 mmHg 62%
    10:00 +24°C° 0 mm 6 m/S 735 mmHg 55%
    11:00 +26°C° 0 mm 6 m/S 734 mmHg 52%
    12:00 +27°C° 0 mm 7 m/S 734 mmHg 49%
    13:00 +28°C° 0 mm 7 m/S 734 mmHg 46%
    14:00 +26°C° 0.1 mm 7 m/S 734 mmHg 50%
    15:00 +24°C° 0.1 mm 7 m/S 734 mmHg 54%
    16:00 +23°C° 0.1 mm 6 m/S 734 mmHg 58%
    17:00 +21°C° 0.3 mm 6 m/S 735 mmHg 66%
    18:00 +19°C° 0.3 mm 5 m/S 736 mmHg 74%
    19:00 +17°C° 0.3 mm 4 m/S 736 mmHg 82%
    20:00 +15°C° 0.3 mm 4 m/S 737 mmHg 81%
    21:00 +14°C° 0.3 mm 4 m/S 737 mmHg 79%
    22:00 +13°C° 0.3 mm 4 m/S 738 mmHg 77%
    23:00 +12°C° 0.1 mm 4 m/S 738 mmHg 76%

    22 September, Samstag

    Zeit Temperatur Niederschläge Wind Luftdruck Luftfeuchtigkeit
    00:00 +12°C° 0.1 mm 4 m/S 739 mmHg 75%
    01:00 +11°C° 0.1 mm 3 m/S 739 mmHg 74%
    02:00 +11°C° 0 mm 4 m/S 739 mmHg 74%
    03:00 +11°C° 0 mm 4 m/S 740 mmHg 74%
    04:00 +11°C° 0 mm 4 m/S 740 mmHg 73%
    05:00 +10°C° 0 mm 4 m/S 740 mmHg 74%
    06:00 +10°C° 0 mm 4 m/S 740 mmHg 74%
    07:00 +10°C° 0 mm 4 m/S 741 mmHg 74%
    08:00 +12°C° 0 mm 4 m/S 741 mmHg 68%
    09:00 +13°C° 0 mm 5 m/S 741 mmHg 62%
    10:00 +14°C° 0 mm 6 m/S 741 mmHg 56%
    11:00 +15°C° 0.1 mm 6 m/S 741 mmHg 53%
    12:00 +15°C° 0.1 mm 6 m/S 740 mmHg 49%
    13:00 +16°C° 0.1 mm 6 m/S 740 mmHg 46%
    14:00 +16°C° 0.1 mm 6 m/S 740 mmHg 46%
    15:00 +15°C° 0.1 mm 5 m/S 740 mmHg 47%
    16:00 +15°C° 0.1 mm 5 m/S 740 mmHg 47%
    17:00 +14°C° 0 mm 4 m/S 740 mmHg 52%
    18:00 +12°C° 0 mm 3 m/S 741 mmHg 57%
    19:00 +12°C° 0 mm 2 m/S 741 mmHg 61%
    20:00 +10°C° 0 mm 2 m/S 741 mmHg 64%
    21:00 +9°C° 0 mm 2 m/S 741 mmHg 67%
    22:00 +9°C° 0 mm 2 m/S 742 mmHg 70%
    23:00 +9°C° 0 mm 2 m/S 741 mmHg 71%

    23 September, Sonntag

    Zeit Temperatur Niederschläge Wind Luftdruck Luftfeuchtigkeit
    00:00 +8°C° 0 mm 2 m/S 741 mmHg 73%
    01:00 +8°C° 0 mm 2 m/S 741 mmHg 74%
    02:00 +8°C° 0 mm 2 m/S 741 mmHg 75%
    03:00 +8°C° 0 mm 2 m/S 741 mmHg 75%
    04:00 +8°C° 0 mm 2 m/S 741 mmHg 75%
    05:00 +8°C° 0 mm 2 m/S 740 mmHg 74%
    06:00 +8°C° 0 mm 2 m/S 740 mmHg 72%
    07:00 +9°C° 0 mm 2 m/S 739 mmHg 71%
    08:00 +11°C° 0 mm 3 m/S 739 mmHg 65%
    09:00 +12°C° 0 mm 4 m/S 738 mmHg 60%
    10:00 +14°C° 0 mm 4 m/S 737 mmHg 54%
    11:00 +15°C° 0 mm 5 m/S 736 mmHg 54%
    12:00 +16°C° 0 mm 6 m/S 734 mmHg 53%
    13:00 +17°C° 0 mm 7 m/S 733 mmHg 53%
    14:00 +17°C° 0.1 mm 7 m/S 731 mmHg 56%
    15:00 +17°C° 0.1 mm 6 m/S 730 mmHg 59%
    16:00 +17°C° 0.1 mm 6 m/S 728 mmHg 63%
    17:00 +17°C° 0.1 mm 6 m/S 727 mmHg 63%
    18:00 +17°C° 0.1 mm 6 m/S 726 mmHg 63%
    19:00 +17°C° 0.1 mm 6 m/S 724 mmHg 64%
    20:00 +16°C° 1.1 mm 7 m/S 725 mmHg 69%
    21:00 +16°C° 1.1 mm 8 m/S 725 mmHg 74%
    22:00 +15°C° 1.1 mm 8 m/S 725 mmHg 79%
    23:00 +13°C° 0.4 mm 8 m/S 726 mmHg 79%

    24 September, Montag

    Zeit Temperatur Niederschläge Wind Luftdruck Luftfeuchtigkeit
    00:00 +12°C° 0.4 mm 8 m/S 726 mmHg 79%
    01:00 +10°C° 0.4 mm 8 m/S 727 mmHg 78%
    02:00 +10°C° 0.1 mm 7 m/S 726 mmHg 76%
    03:00 +10°C° 0.1 mm 7 m/S 725 mmHg 75%
    04:00 +9°C° 0.1 mm 7 m/S 725 mmHg 73%
    05:00 +9°C° 0 mm 7 m/S 724 mmHg 73%
    06:00 +10°C° 0 mm 7 m/S 723 mmHg 73%
    07:00 +10°C° 0 mm 6 m/S 722 mmHg 72%
    08:00 +10°C° 0.2 mm 6 m/S 723 mmHg 75%
    09:00 +10°C° 0.2 mm 7 m/S 723 mmHg 77%
    10:00 +11°C° 0.2 mm 7 m/S 724 mmHg 80%
    11:00 +10°C° 0.6 mm 8 m/S 725 mmHg 81%
    12:00 +8°C° 0.6 mm 9 m/S 727 mmHg 82%
    13:00 +8°C° 0.6 mm 10 m/S 729 mmHg 84%
    14:00 +8°C° 0.4 mm 9 m/S 730 mmHg 81%
    15:00 +9°C° 0.4 mm 8 m/S 732 mmHg 79%
    16:00 +9°C° 0.4 mm 7 m/S 733 mmHg 77%
    17:00 +9°C° 0.1 mm 7 m/S 734 mmHg 78%
    18:00 +8°C° 0.1 mm 7 m/S 735 mmHg 79%
    19:00 +8°C° 0.1 mm 7 m/S 736 mmHg 80%
    20:00 +8°C° 0.1 mm 7 m/S 737 mmHg 81%
    21:00 +6°C° 0.1 mm 7 m/S 738 mmHg 82%
    22:00 +6°C° 0.1 mm 7 m/S 739 mmHg 83%
    23:00 +6°C° 0.1 mm 7 m/S 739 mmHg 84%
    Mehr zeigen